• In Latvia
  • List of Countries
  • For 7 days
  • Water Temperature
  • Satellite Maps
  • Weather Map
  • Weather Widgets
  • user-avatar
    Login

    Hourly Weather Liepaja

    Today, 12 December, Tuesday

    Time Temperature Precipitation Wind Pressure Humidity
    00:00 -1°C° 0.2 mm 7 mps 744 mmHg 90%
    01:00 -1°C° 0.2 mm 8 mps 744 mmHg 89%
    02:00 0°C° 0.5 mm 8 mps 743 mmHg 89%
    03:00 0°C° 0.5 mm 8 mps 742 mmHg 89%
    04:00 0°C° 0.5 mm 9 mps 742 mmHg 89%
    05:00 0°C° 0.7 mm 9 mps 741 mmHg 90%
    06:00 +1°C° 0.7 mm 8 mps 740 mmHg 91%
    07:00 +1°C° 0.7 mm 8 mps 740 mmHg 91%
    08:00 +2°C° 1 mm 8 mps 740 mmHg 92%
    09:00 +2°C° 1 mm 8 mps 740 mmHg 93%
    10:00 +3°C° 1 mm 7 mps 739 mmHg 94%
    11:00 +2°C° 0.5 mm 8 mps 740 mmHg 93%
    12:00 +4°C° 0.5 mm 8 mps 740 mmHg 93%
    13:00 +3°C° 0.5 mm 9 mps 740 mmHg 92%
    14:00 +3°C° 0.3 mm 10 mps 741 mmHg 90%
    15:00 +3°C° 0.3 mm 10 mps 741 mmHg 88%
    16:00 +3°C° 0.3 mm 11 mps 741 mmHg 86%
    17:00 +3°C° 0.3 mm 11 mps 741 mmHg 84%
    18:00 +3°C° 0.3 mm 11 mps 742 mmHg 83%
    19:00 +3°C° 0.3 mm 11 mps 742 mmHg 81%
    20:00 +2°C° 0.8 mm 10 mps 743 mmHg 83%
    21:00 +2°C° 0.8 mm 10 mps 743 mmHg 85%
    22:00 +2°C° 0.8 mm 9 mps 744 mmHg 87%
    23:00 +1°C° 1 mm 9 mps 745 mmHg 86%

    Tomorrow, 13 December, Wednesday

    Time Temperature Precipitation Wind Pressure Humidity
    00:00 +1°C° 1 mm 10 mps 747 mmHg 84%
    01:00 0°C° 1 mm 10 mps 748 mmHg 83%
    02:00 0°C° 0.3 mm 10 mps 749 mmHg 80%
    03:00 0°C° 0.3 mm 10 mps 750 mmHg 77%
    04:00 -1°C° 0.3 mm 9 mps 752 mmHg 75%
    05:00 -1°C° 0.3 mm 9 mps 752 mmHg 76%
    06:00 -1°C° 0.3 mm 8 mps 752 mmHg 78%
    07:00 -1°C° 0.3 mm 7 mps 753 mmHg 79%
    08:00 0°C° 0.5 mm 8 mps 753 mmHg 79%
    09:00 +1°C° 0.5 mm 9 mps 754 mmHg 79%
    10:00 +1°C° 0.5 mm 10 mps 754 mmHg 79%
    11:00 +1°C° 0.1 mm 10 mps 754 mmHg 78%
    12:00 +1°C° 0.1 mm 10 mps 754 mmHg 77%
    13:00 +1°C° 0.1 mm 10 mps 754 mmHg 76%
    14:00 +1°C° 0 mm 10 mps 754 mmHg 77%
    15:00 +1°C° 0 mm 10 mps 754 mmHg 78%
    16:00 0°C° 0 mm 9 mps 754 mmHg 79%
    17:00 0°C° 0 mm 10 mps 753 mmHg 80%
    18:00 0°C° 0 mm 10 mps 753 mmHg 80%
    19:00 -2°C° 0 mm 10 mps 753 mmHg 81%
    20:00 -2°C° 0 mm 10 mps 752 mmHg 81%
    21:00 -2°C° 0 mm 10 mps 752 mmHg 81%
    22:00 -3°C° 0 mm 11 mps 751 mmHg 81%
    23:00 -3°C° 0 mm 11 mps 750 mmHg 79%

    Day after tomorrow, 14 December, Thursday

    Time Temperature Precipitation Wind Pressure Humidity
    00:00 -3°C° 0 mm 11 mps 749 mmHg 78%
    01:00 -3°C° 0 mm 11 mps 749 mmHg 77%
    02:00 -3°C° 0.1 mm 12 mps 748 mmHg 77%
    03:00 -3°C° 0.1 mm 12 mps 747 mmHg 76%
    04:00 -3°C° 0.1 mm 12 mps 746 mmHg 76%
    05:00 -3°C° 0.3 mm 12 mps 745 mmHg 77%
    06:00 -3°C° 0.3 mm 12 mps 744 mmHg 78%
    07:00 -3°C° 0.3 mm 12 mps 744 mmHg 80%
    08:00 -3°C° 0.3 mm 12 mps 743 mmHg 80%
    09:00 -2°C° 0.3 mm 12 mps 743 mmHg 81%
    10:00 -2°C° 0.3 mm 12 mps 742 mmHg 81%
    11:00 -2°C° 0.8 mm 11 mps 742 mmHg 82%
    12:00 -2°C° 0.8 mm 10 mps 742 mmHg 84%
    13:00 0°C° 0.8 mm 9 mps 741 mmHg 86%
    14:00 0°C° 0.2 mm 8 mps 741 mmHg 87%
    15:00 0°C° 0.2 mm 7 mps 741 mmHg 89%
    16:00 +1°C° 0.2 mm 6 mps 741 mmHg 90%
    17:00 +1°C° 0.4 mm 6 mps 741 mmHg 89%
    18:00 0°C° 0.4 mm 7 mps 741 mmHg 88%
    19:00 0°C° 0.4 mm 7 mps 741 mmHg 87%
    20:00 0°C° 0.2 mm 8 mps 741 mmHg 84%
    21:00 0°C° 0.2 mm 9 mps 742 mmHg 81%
    22:00 0°C° 0.2 mm 10 mps 742 mmHg 78%
    23:00 0°C° 0.3 mm 10 mps 742 mmHg 78%

    15 December, Friday

    Time Temperature Precipitation Wind Pressure Humidity
    00:00 -1°C° 0.3 mm 11 mps 743 mmHg 79%
    01:00 -1°C° 0.3 mm 11 mps 743 mmHg 80%
    02:00 -1°C° 0.2 mm 11 mps 743 mmHg 79%
    03:00 -2°C° 0.2 mm 10 mps 743 mmHg 79%
    04:00 -2°C° 0.2 mm 10 mps 743 mmHg 79%
    05:00 -1°C° 0 mm 9 mps 743 mmHg 80%
    06:00 -1°C° 0 mm 9 mps 744 mmHg 80%
    07:00 -3°C° 0 mm 9 mps 744 mmHg 81%
    08:00 -2°C° 0.1 mm 8 mps 744 mmHg 80%
    09:00 -2°C° 0.1 mm 8 mps 744 mmHg 78%
    10:00 -2°C° 0.1 mm 8 mps 744 mmHg 77%
    11:00 -1°C° 0.4 mm 8 mps 743 mmHg 80%
    12:00 -1°C° 0.4 mm 7 mps 743 mmHg 82%
    13:00 -1°C° 0.4 mm 6 mps 743 mmHg 85%
    14:00 0°C° 0.2 mm 5 mps 742 mmHg 87%
    15:00 0°C° 0.2 mm 4 mps 742 mmHg 88%
    16:00 0°C° 0.2 mm 3 mps 742 mmHg 90%
    17:00 0°C° 0.2 mm 4 mps 742 mmHg 90%
    18:00 0°C° 0.2 mm 4 mps 742 mmHg 91%
    19:00 0°C° 0.2 mm 4 mps 743 mmHg 92%
    20:00 0°C° 0.1 mm 5 mps 743 mmHg 90%
    21:00 0°C° 0.1 mm 5 mps 744 mmHg 89%
    22:00 +1°C° 0.1 mm 6 mps 744 mmHg 88%
    23:00 +1°C° 0.1 mm 6 mps 745 mmHg 87%

    16 December, Saturday

    Time Temperature Precipitation Wind Pressure Humidity
    00:00 +1°C° 0.1 mm 6 mps 745 mmHg 86%
    01:00 0°C° 0.1 mm 7 mps 746 mmHg 86%
    02:00 0°C° 0.1 mm 7 mps 746 mmHg 86%
    03:00 +1°C° 0.1 mm 6 mps 747 mmHg 86%
    04:00 +1°C° 0.1 mm 6 mps 747 mmHg 86%
    05:00 +1°C° 0.1 mm 6 mps 747 mmHg 86%
    06:00 +1°C° 0.1 mm 6 mps 748 mmHg 86%
    07:00 +1°C° 0.1 mm 6 mps 748 mmHg 85%
    08:00 +1°C° 0.1 mm 6 mps 748 mmHg 85%
    09:00 -1°C° 0.1 mm 6 mps 748 mmHg 85%
    10:00 -1°C° 0.1 mm 7 mps 749 mmHg 85%
    11:00 -1°C° 0 mm 6 mps 749 mmHg 86%
    12:00 -1°C° 0 mm 6 mps 749 mmHg 87%
    13:00 -1°C° 0 mm 6 mps 748 mmHg 88%
    14:00 -1°C° 0.1 mm 6 mps 749 mmHg 88%
    15:00 -1°C° 0.1 mm 6 mps 749 mmHg 89%
    16:00 -1°C° 0.1 mm 6 mps 749 mmHg 89%
    17:00 -1°C° 0.1 mm 6 mps 749 mmHg 89%
    18:00 0°C° 0.1 mm 5 mps 749 mmHg 88%
    19:00 0°C° 0.1 mm 5 mps 749 mmHg 87%
    20:00 0°C° 0.2 mm 5 mps 750 mmHg 87%
    21:00 0°C° 0.2 mm 5 mps 750 mmHg 87%
    22:00 -1°C° 0.2 mm 5 mps 750 mmHg 87%
    23:00 0°C° 0.2 mm 5 mps 750 mmHg 87%

    17 December, Sunday

    Time Temperature Precipitation Wind Pressure Humidity
    00:00 0°C° 0.2 mm 4 mps 750 mmHg 86%
    01:00 0°C° 0.2 mm 4 mps 751 mmHg 86%
    02:00 -1°C° 0 mm 4 mps 751 mmHg 85%
    03:00 -1°C° 0 mm 4 mps 751 mmHg 83%
    04:00 -2°C° 0 mm 4 mps 751 mmHg 82%
    05:00 -2°C° 0 mm 4 mps 752 mmHg 81%
    06:00 -2°C° 0 mm 4 mps 752 mmHg 80%
    07:00 -2°C° 0 mm 4 mps 752 mmHg 80%
    08:00 -2°C° 0 mm 4 mps 753 mmHg 79%
    09:00 -2°C° 0 mm 4 mps 753 mmHg 78%
    10:00 -1°C° 0 mm 4 mps 754 mmHg 77%
    11:00 -1°C° 0 mm 4 mps 754 mmHg 77%
    12:00 -1°C° 0 mm 5 mps 754 mmHg 77%
    13:00 0°C° 0 mm 5 mps 754 mmHg 77%
    14:00 -1°C° 0 mm 5 mps 755 mmHg 79%
    15:00 -1°C° 0 mm 4 mps 755 mmHg 81%
    16:00 -2°C° 0 mm 4 mps 755 mmHg 83%
    17:00 -2°C° 0 mm 4 mps 756 mmHg 84%
    18:00 -2°C° 0 mm 4 mps 756 mmHg 84%
    19:00 -2°C° 0 mm 4 mps 757 mmHg 85%
    20:00 -2°C° 0 mm 4 mps 757 mmHg 85%
    21:00 -2°C° 0 mm 4 mps 757 mmHg 85%
    22:00 -2°C° 0 mm 4 mps 758 mmHg 85%
    23:00 -2°C° 0 mm 4 mps 758 mmHg 85%
    Show more